CZ-6A DEB, 55532

Orbit data source: Space-Track

CZ-6A DEB, 55532 is space debris in SSO originally from a launch on Fri, 11 Nov 2022 UTC launched from the Taiyaun Space Center, China (TSC). Debris objects in space refer to the collection of defunct objects orbiting the Earth. Examples of debris include non-operational satellites, rocket bodies, and fragments generated from explosions, collisions, or faulty payload assembly.

Loading next visibility...
Identifier
55532, 2022-151YE
Orbit
SSO
Country
Flag of CNCN / PRC
Related business
Manufacturer
SAST
Mission
Spacecraft
Bus & Motor
Unknown
Mass
Unknown
Launch date (UTC)
2022-11-11 (4 years ago)
Launch vehicle
Unknown
Launch site
Taiyaun Space Center, China (TSC)
Object type
Payload
Rocket body
Debris
Shape & HBR
Unknown shape, 0.1 m
Radar Cross Section
Small (<0.1 m²)

Expand to show TLE details & history
Last TLE update: 17 hours ago

TLE from 17 hours ago
0 CZ-6A DEB
1 55532U 22151YE  26237.21471428  .00042550  00000-0  34785-2 0  9995
2 55532  98.6381 322.5866 0036815  29.4893 330.8392 14.98679752196032
Epoch: 2026-08-25T05:09Z
TLE epoch observation values (Epoch: 2026-08-25T05:09:11.313Z)
Latitude
-0.00015°
Longitude
-88.19579°
Altitude
551.675 km
Speed
7.598 km/s
True Right ascension
21h 30m 20s
True Declination
0° 00' 01"
Sunlit
Object was in full shadow at epoch
Visualization orbit readout
Latitude
Unknown
Longitude
Unknown
Altitude
Unknown
Speed
Unknown
Apparent Right ascension
Unknown
Apparent Declination
Unknown
Sunlit
N/A
Visualization observer readout
Local Sidereal Time
13:19:26
Azimuth
Unknown
Elevation
Unknown
Doppler factor
Unknown
Orbital elements
Apogee altitude
593.598 km
Perigee altitude
542.453 km
Semi-major axis
6,946.162 km
Eccentricity
0.00368
Inclination
98.6381°
RAAN
322.5866°
Arg. of periapsis
29.4893°
True anomaly
330.63281°
Mean anomaly
330.8392°
Eccentric anomaly
330.73609°
Mean motion
3.74909 °/min
Orbital period
96.02 mins
BSTAR
0.0034785
Loading maneuver chart data...
Computing Atmospheric mass density...
Loading historical data...
Loading historical data...
Loading historical data...
Loading historical data...
Loading historical data...
Loading historical data...
Loading historical data...

Documentation

Showing up to 5 results
|